Hourly Data Report for September 29, 2017

All times are specified in Local Standard Time (LST). Add 1 hour to adjust for Daylight Saving Time where and when it is observed.

RESOLUTE BAY A
NUNAVUT

74°43'01.000" N
94°58'10.000" W
67.70 m
2403498
71924
YRB

Download Data

Hourly Data (September 2017)
Hourly Data Report for September 29, 2017
Temp Definition
°C
Dew Point Temp Definition
°C
Rel Hum Definition
%
Wind Dir Definition
10's deg

Wind Spd Definition
km/h
Visibility Definition
km
Stn Press Definition
kPa
Hmdx Definition


Wind Chill Definition


Weather Definition


TIME
00:00 Legend Double Dagger -10.9 -13.9 79 2 12 24.1 100.25   -17 Snow
01:00 Legend Double Dagger -12.2 -14.9 81 4 25 24.1 100.26   -22 Snow
02:00 Legend Double Dagger -15.8 -18.1 83 6 34 24.1 100.26   -28 Snow
03:00 Legend Double Dagger -14.6 -17.6 78 5 27 24.1 100.26   -25 Mainly Clear
04:00 Legend Double Dagger -13.2 -16.5 76 7 23 24.1 100.26   -23 LegendNANA
05:00 Legend Double Dagger -13.8 -17.3 75 6 18 24.1 100.26   -22 LegendNANA
06:00 Legend Double Dagger -13.2 -17.4 71 7 18 24.1 100.27   -21 Mainly Clear
07:00 Legend Double Dagger -15.0 -18.7 73 5 21 24.1 100.28   -24 LegendNANA
08:00 Legend Double Dagger -14.6 -18.2 74 5 24 24.1 100.27   -24 LegendNANA
09:00 Legend Double Dagger -14.3 -17.6 76 5 25 24.1 100.28   -24 Clear
10:00 Legend Double Dagger -12.6 -15.2 81 5 27 24.1 100.28   -22 LegendNANA
11:00 Legend Double Dagger -12.4 -15.1 81 5 26 24.1 100.29   -22 LegendNANA
12:00 Legend Double Dagger -13.0 -14.9 86 5 32 6.4 100.30   -24 Ice Crystals,Fog
13:00 Legend Double Dagger -12.1 -14.0 86 3 29 12.9 100.31   -22 LegendNANA
14:00 Legend Double Dagger -11.4 -13.1 88 3 31 9.7 100.34   -21 Snow
15:00 Legend Double Dagger -11.1 -12.8 87 4 27 12.9 100.34   -21 Ice Crystals
16:00 Legend Double Dagger -10.4 -12.2 87 3 22 16.1 100.37   -19 Ice Crystals
17:00 Legend Double Dagger -9.1 -10.7 88 36 22 24.1 100.41   -17 LegendNANA
18:00 Legend Double Dagger -8.6 -10.0 89 1 27 24.1 100.42   -17 Cloudy
19:00 Legend Double Dagger -8.0 -9.3 90 35 19 24.1 100.46   -15 LegendNANA
20:00 Legend Double Dagger -8.1 -9.2 92 36 27 24.1 100.48   -17 Snow
21:00 Legend Double Dagger -8.3 -9.7 90 36 22 24.1 100.51   -16 Snow
22:00 Legend Double Dagger -8.7 -10.1 90 36 27 24.1 100.55   -17 Snow
23:00 Legend Double Dagger -9.2 -10.6 90 36 22 24.1 100.58   -17 Snow

Notes on Data Quality.

Legend

  • E = Estimated
  • M = Missing
  • NA = Not Available
  • ‡ = Partner data that is not subject to review by the National Climate Archives
Date modified: